| time (UTC) | temp F | wind direction | speed knots | gust knots | rain 1hr in | rain 24hr in | rain mn in | humidity % | barometer mb |
| 20260507005458 | 68 | 5 | 5.2 | 13.9 | 0.00 | 0.01 | 0.01 | 30 | 1010.3 |
| 20260507004959 | 68 | 8 | 5.2 | 10.4 | 0.00 | 0.01 | 0.01 | 33 | 1010.2 |
| 20260507004458 | 68 | 6 | 4.3 | 13.0 | 0.00 | 0.01 | 0.01 | 33 | 1010.3 |
| 20260507003959 | 68 | 354 | 4.3 | 13.0 | 0.00 | 0.01 | 0.01 | 38 | 1010.2 |
| 20260507003458 | 69 | 128 | 3.5 | 11.3 | 0.00 | 0.01 | 0.01 | 40 | 1010.3 |
| 20260507002958 | 69 | 357 | 2.6 | 12.2 | 0.00 | 0.01 | 0.01 | 40 | 1010.3 |
| 20260507002458 | 69 | 20 | 4.3 | 12.2 | 0.00 | 0.01 | 0.01 | 43 | 1010.2 |
| 20260507001958 | 69 | 359 | 4.3 | 12.2 | 0.00 | 0.01 | 0.01 | 46 | 1010.0 |
| 20260507001501 | 70 | 3 | 4.3 | 11.3 | 0.00 | 0.01 | 0.01 | 48 | 1010.0 |
| 20260507000459 | 71 | 3 | 2.6 | 10.4 | 0.00 | 0.01 | 0.01 | 54 | 1009.6 |
| 20260506235958 | 71 | 2 | 7.0 | 10.4 | 0.00 | 0.01 | 0.01 | 58 | 1009.7 |
| 20260506235458 | 72 | 353 | 2.6 | 10.4 | 0.01 | 0.01 | 0.01 | 58 | 1009.4 |
| 20260506234959 | 73 | 21 | 2.6 | 7.8 | 0.01 | 0.01 | 0.01 | 58 | 1009.5 |
| 20260506233959 | 73 | 0 | 3.5 | 10.4 | 0.01 | 0.01 | 0.01 | 61 | 1009.5 |
| 20260506233459 | 74 | 33 | 4.3 | 10.4 | 0.01 | 0.01 | 0.01 | 61 | 1009.3 |
| 20260506232958 | 74 | 40 | 2.6 | 10.4 | 0.01 | 0.01 | 0.01 | 60 | 1009.3 |
| 20260506231959 | 75 | 353 | 5.2 | 13.9 | 0.01 | 0.01 | 0.01 | 64 | 1009.1 |
| 20260506231458 | 75 | 21 | 4.3 | 11.3 | 0.01 | 0.01 | 0.01 | 64 | 1009.2 |
| 20260506230959 | 76 | 27 | 5.2 | 11.3 | 0.01 | 0.01 | 0.01 | 64 | 1009.0 |
| 20260506230458 | 76 | 4 | 1.7 | 13.9 | 0.01 | 0.01 | 0.01 | 61 | 1009.0 |
| 20260506230000 | 76 | 353 | 5.2 | 13.9 | 0.01 | 0.01 | 0.01 | 64 | 1009.0 |
| 20260506225458 | 77 | 8 | 2.6 | 11.3 | 0.00 | 0.00 | 0.00 | 62 | 1008.9 |
| 20260506224459 | 78 | 65 | 3.5 | 7.8 | 0.00 | 0.00 | 0.00 | 64 | 1008.6 |
| 20260506224002 | 78 | 9 | 1.7 | 13.0 | 0.00 | 0.00 | 0.00 | 62 | 1008.5 |
| 20260506223458 | 79 | 17 | 4.3 | 13.0 | 0.00 | 0.00 | 0.00 | 63 | 1008.4 |
| 20260506222959 | 79 | 54 | 4.3 | 12.2 | 0.00 | 0.00 | 0.00 | 63 | 1008.2 |
| 20260506222500 | 79 | 72 | 2.6 | 12.2 | 0.00 | 0.00 | 0.00 | 62 | 1008.2 |
| 20260506221959 | 80 | 23 | 5.2 | 12.2 | 0.00 | 0.00 | 0.00 | 63 | 1008.1 |
| 20260506221459 | 80 | 27 | 3.5 | 11.3 | 0.00 | 0.00 | 0.00 | 60 | 1008.3 |
| 20260506220959 | 80 | 10 | 4.3 | 10.4 | 0.00 | 0.00 | 0.00 | 61 | 1008.3 |
| 20260506220502 | 81 | 2 | 1.7 | 10.4 | 0.00 | 0.00 | 0.00 | 57 | 1008.2 |
| 20260506215959 | 81 | 43 | 2.6 | 8.7 | 0.00 | 0.00 | 0.00 | 56 | 1008.2 |
| 20260506215458 | 81 | 68 | 4.3 | 10.4 | 0.00 | 0.00 | 0.00 | 55 | 1008.2 |
| 20260506215001 | 81 | 54 | 4.3 | 10.4 | 0.00 | 0.00 | 0.00 | 53 | 1008.3 |
| 20260506214459 | 81 | 21 | 4.3 | 10.4 | 0.00 | 0.00 | 0.00 | 55 | 1008.3 |
| 20260506213959 | 81 | 359 | 2.6 | 8.7 | 0.00 | 0.00 | 0.00 | 55 | 1008.3 |
| 20260506213459 | 81 | 15 | 2.6 | 7.8 | 0.00 | 0.00 | 0.00 | 56 | 1008.1 |
| 20260506212500 | 82 | 29 | 1.7 | 7.8 | 0.00 | 0.00 | 0.00 | 55 | 1008.0 |
| 20260506211958 | 83 | 36 | 2.6 | 7.8 | 0.00 | 0.00 | 0.00 | 60 | 1008.0 |
| 20260506211459 | 84 | 62 | 2.6 | 7.0 | 0.00 | 0.00 | 0.00 | 57 | 1008.0 |
| 20260506210958 | 84 | 69 | 2.6 | 8.7 | 0.00 | 0.00 | 0.00 | 56 | 1008.0 |
| 20260506210459 | 85 | 87 | 2.6 | 8.7 | 0.00 | 0.00 | 0.00 | 59 | 1008.0 |
| 20260506205458 | 85 | 142 | 2.6 | 8.7 | 0.00 | 0.00 | 0.00 | 57 | 1008.0 |
| 20260506205001 | 85 | 122 | 1.7 | 8.7 | 0.00 | 0.00 | 0.00 | 56 | 1008.1 |
| 20260506204458 | 85 | 115 | 3.5 | 7.8 | 0.00 | 0.00 | 0.00 | 59 | 1008.2 |
| 20260506204002 | 85 | 72 | 3.5 | 7.8 | 0.00 | 0.00 | 0.00 | 63 | 1008.3 |
| 20260506203458 | 86 | 84 | 4.3 | 7.8 | 0.00 | 0.00 | 0.00 | 66 | 1008.3 |
| 20260506202959 | 87 | 95 | 1.7 | 6.1 | 0.00 | 0.00 | 0.00 | 67 | 1008.4 |
| 20260506202458 | 87 | 78 | 0.9 | 2.6 | 0.00 | 0.00 | 0.00 | 67 | 1008.5 |
| 20260506201500 | 86 | 334 | 0.9 | 5.2 | 0.00 | 0.00 | 0.00 | 67 | 1008.5 |
| 20260506200958 | 86 | 178 | 1.7 | 5.2 | 0.00 | 0.00 | 0.00 | 67 | 1008.5 |
| 20260506200459 | 86 | 134 | 0.9 | 7.0 | 0.00 | 0.00 | 0.00 | 66 | 1008.4 |
| 20260506195958 | 86 | 18 | 1.7 | 7.0 | 0.00 | 0.00 | 0.00 | 66 | 1008.4 |
| 20260506195459 | 86 | 129 | 3.5 | 6.1 | 0.00 | 0.00 | 0.00 | 65 | 1008.5 |
| 20260506194959 | 85 | 144 | 2.6 | 7.0 | 0.00 | 0.00 | 0.00 | 64 | 1008.5 |
| 20260506194459 | 85 | 130 | 1.7 | 7.0 | 0.00 | 0.00 | 0.00 | 60 | 1008.5 |
| 20260506193958 | 85 | 158 | 1.7 | 5.2 | 0.00 | 0.00 | 0.00 | 59 | 1008.6 |
| 20260506193459 | 85 | 127 | 1.7 | 5.2 | 0.00 | 0.00 | 0.00 | 59 | 1008.5 |
| 20260506192958 | 85 | 163 | 0.9 | 7.0 | 0.00 | 0.00 | 0.00 | 53 | 1008.6 |
| 20260506192500 | 85 | 154 | 2.6 | 7.0 | 0.00 | 0.00 | 0.00 | 57 | 1008.8 |
| 20260506191959 | 85 | 154 | 1.7 | 5.2 | 0.00 | 0.00 | 0.00 | 57 | 1008.7 |
| 20260506191458 | 85 | 199 | 0.9 | 5.2 | 0.00 | 0.00 | 0.00 | 54 | 1008.8 |
| 20260506190959 | 84 | 196 | 1.7 | 7.0 | 0.00 | 0.00 | 0.00 | 58 | 1008.9 |
| 20260506190501 | 84 | 158 | 1.7 | 7.0 | 0.00 | 0.00 | 0.00 | 55 | 1009.0 |
| 20260506185958 | 84 | 131 | 0.9 | 7.0 | 0.00 | 0.00 | 0.00 | 49 | 1008.9 |
| 20260506185458 | 83 | 140 | 1.7 | 7.0 | 0.00 | 0.00 | 0.00 | 35 | 1008.8 |
| 20260506185000 | 83 | 173 | 1.7 | 7.0 | 0.00 | 0.00 | 0.00 | 43 | 1009.1 |
| 20260506184459 | 83 | 165 | 2.6 | 7.0 | 0.00 | 0.00 | 0.00 | 32 | 1009.1 |
| 20260506183958 | 83 | 158 | 1.7 | 5.2 | 0.00 | 0.00 | 0.00 | 25 | 1009.1 |
| 20260506183002 | 82 | 119 | 3.5 | 6.1 | 0.00 | 0.00 | 0.00 | 19 | 1009.1 |
| 20260506182458 | 82 | 129 | 0.9 | 5.2 | 0.00 | 0.00 | 0.00 | 17 | 1009.2 |
| 20260506181959 | 82 | 112 | 0.0 | 5.2 | 0.00 | 0.00 | 0.00 | 17 | 1009.4 |
| 20260506181500 | 82 | 90 | 0.9 | 5.2 | 0.00 | 0.00 | 0.00 | 17 | 1009.4 |
| 20260506180959 | 82 | 105 | 1.7 | 4.3 | 0.00 | 0.00 | 0.00 | 22 | 1009.3 |
| 20260506180858 | 82 | 125 | 1.7 | 4.3 | 0.00 | 0.00 | 0.00 | 18 | 1009.3 |
| 20260506180501 | 82 | 112 | 0.9 | 4.3 | 0.00 | 0.00 | 0.00 | 17 | 1009.5 |
| 20260506174959 | 81 | 117 | 1.7 | 4.3 | 0.00 | 0.00 | 0.00 | 17 | 1009.6 |
| 20260506174459 | 81 | 138 | 0.9 | 2.6 | 0.00 | 0.00 | 0.00 | 17 | 1009.6 |
| 20260506172959 | 81 | 37 | 0.0 | 6.1 | 0.00 | 0.00 | 0.00 | 17 | 1009.8 |
| 20260506172458 | 81 | 95 | 0.0 | 6.1 | 0.00 | 0.00 | 0.00 | 17 | 1009.8 |
| 20260506171959 | 81 | 40 | 1.7 | 4.3 | 0.00 | 0.00 | 0.00 | 17 | 1009.8 |
| 20260506171458 | 80 | 145 | 0.9 | 7.8 | 0.00 | 0.00 | 0.00 | 17 | 1009.9 |
| 20260506170959 | 80 | 90 | 0.0 | 7.8 | 0.00 | 0.00 | 0.00 | 17 | 1009.9 |
| 20260506170500 | 80 | 104 | 1.7 | 7.8 | 0.00 | 0.00 | 0.00 | 17 | 1009.9 |
| 20260506165958 | 80 | 351 | 0.9 | 7.8 | 0.00 | 0.00 | 0.00 | 17 | 1009.9 |
| 20260506165000 | 80 | 72 | 2.6 | 7.8 | 0.00 | 0.00 | 0.00 | 17 | 1009.9 |
| 20260506164459 | 80 | 108 | 1.7 | 7.8 | 0.00 | 0.00 | 0.00 | 17 | 1009.9 |
| 20260506163959 | 79 | 82 | 2.6 | 6.1 | 0.00 | 0.00 | 0.00 | 17 | 1009.9 |
| 20260506163001 | 78 | 146 | 1.7 | 7.0 | 0.00 | 0.00 | 0.00 | 17 | 1010.0 |
| 20260506162459 | 78 | 68 | 1.7 | 7.0 | 0.00 | 0.00 | 0.00 | 17 | 1009.9 |
| 20260506161959 | 78 | 87 | 1.7 | 7.0 | 0.00 | 0.00 | 0.00 | 17 | 1010.0 |
| 20260506160501 | 77 | 156 | 0.0 | 2.6 | 0.00 | 0.00 | 0.00 | 17 | 1009.8 |
| 20260506155958 | 77 | 157 | 0.9 | 2.6 | 0.00 | 0.00 | 0.00 | 17 | 1009.8 |
| 20260506155459 | 77 | 171 | 0.0 | 0.0 | 0.00 | 0.00 | 0.00 | 17 | 1009.7 |
| 20260506154502 | 77 | 173 | 0.0 | 0.0 | 0.00 | 0.00 | 0.00 | 17 | 1009.4 |
| 20260506153959 | 77 | 173 | 0.0 | 0.0 | 0.00 | 0.00 | 0.00 | 17 | 1009.3 |
| 20260506153001 | 77 | 173 | 0.0 | 0.0 | 0.00 | 0.00 | 0.00 | 17 | 1009.2 |
| 20260506152459 | 77 | 173 | 0.0 | 1.7 | 0.00 | 0.00 | 0.00 | 17 | 1009.1 |
| 20260506151959 | 76 | 173 | 0.0 | 1.7 | 0.00 | 0.00 | 0.00 | 17 | 1009.1 |
| 20260506151459 | 76 | 173 | 0.0 | 0.0 | 0.00 | 0.00 | 0.00 | 17 | 1009.0 |
| 20260506151002 | 76 | 173 | 0.0 | 0.0 | 0.00 | 0.00 | 0.00 | 17 | 1009.0 |
| 20260506145959 | 76 | 173 | 0.0 | 0.0 | 0.00 | 0.00 | 0.00 | 17 | 1009.0 |
| 20260506144959 | 76 | 173 | 0.0 | 1.7 | 0.00 | 0.00 | 0.00 | 17 | 1008.9 |
| 20260506144501 | 76 | 173 | 0.0 | 0.0 | 0.00 | 0.00 | 0.00 | 17 | 1008.9 |
| 20260506143959 | 76 | 174 | 0.0 | 0.9 | 0.00 | 0.00 | 0.00 | 17 | 1008.9 |
| 20260506143459 | 76 | 174 | 0.0 | 0.9 | 0.00 | 0.00 | 0.00 | 17 | 1008.6 |
| 20260506142959 | 76 | 174 | 0.0 | 2.6 | 0.00 | 0.00 | 0.00 | 17 | 1008.6 |
| 20260506141459 | 76 | 177 | 0.9 | 2.6 | 0.00 | 0.00 | 0.00 | 17 | 1008.3 |
| 20260506141002 | 76 | 180 | 0.0 | 2.6 | 0.00 | 0.00 | 0.00 | 17 | 1008.3 |
| 20260506140459 | 76 | 182 | 0.0 | 4.3 | 0.00 | 0.00 | 0.00 | 17 | 1008.2 |
| 20260506135959 | 75 | 188 | 1.7 | 4.3 | 0.00 | 0.00 | 0.00 | 17 | 1007.9 |
| 20260506135501 | 75 | 179 | 0.9 | 4.3 | 0.00 | 0.00 | 0.00 | 17 | 1007.9 |
| 20260506134959 | 75 | 182 | 0.0 | 2.6 | 0.00 | 0.00 | 0.00 | 17 | 1007.9 |
| 20260506134459 | 75 | 168 | 0.9 | 7.8 | 0.00 | 0.00 | 0.00 | 17 | 1007.9 |
| 20260506133959 | 75 | 200 | 1.7 | 7.8 | 0.00 | 0.00 | 0.00 | 17 | 1007.8 |
| 20260506133459 | 75 | 164 | 2.6 | 7.8 | 0.00 | 0.00 | 0.00 | 17 | 1007.7 |
| 20260506132959 | 75 | 155 | 0.9 | 5.2 | 0.00 | 0.00 | 0.00 | 17 | 1007.7 |
| 20260506132459 | 75 | 175 | 0.0 | 5.2 | 0.00 | 0.00 | 0.00 | 17 | 1007.7 |
| 20260506131959 | 75 | 169 | 0.9 | 6.1 | 0.00 | 0.00 | 0.00 | 17 | 1007.7 |
| 20260506131459 | 75 | 165 | 1.7 | 6.1 | 0.00 | 0.00 | 0.00 | 17 | 1007.7 |
| 20260506130959 | 75 | 163 | 1.7 | 4.3 | 0.00 | 0.00 | 0.00 | 17 | 1007.6 |
| 20260506130459 | 75 | 150 | 1.7 | 5.2 | 0.00 | 0.00 | 0.00 | 17 | 1007.5 |
| 20260506125959 | 75 | 205 | 0.9 | 5.2 | 0.00 | 0.00 | 0.00 | 17 | 1007.5 |
| 20260506125459 | 75 | 153 | 0.0 | 2.6 | 0.00 | 0.00 | 0.00 | 17 | 1007.6 |
| 20260506124959 | 75 | 150 | 0.9 | 4.3 | 0.00 | 0.00 | 0.00 | 17 | 1007.6 |
| 20260506124501 | 75 | 161 | 1.7 | 4.3 | 0.00 | 0.00 | 0.00 | 17 | 1007.6 |
| 20260506123959 | 75 | 150 | 1.7 | 4.3 | 0.00 | 0.00 | 0.00 | 17 | 1007.7 |
| 20260506123501 | 75 | 190 | 0.0 | 2.6 | 0.00 | 0.00 | 0.00 | 17 | 1007.7 |
| 20260506123000 | 75 | 191 | 0.0 | 2.6 | 0.00 | 0.00 | 0.00 | 17 | 1007.6 |
| 20260506122459 | 75 | 181 | 0.9 | 2.6 | 0.00 | 0.00 | 0.00 | 17 | 1007.6 |
| 20260506122000 | 75 | 182 | 0.0 | 2.6 | 0.00 | 0.00 | 0.00 | 17 | 1007.5 |
| 20260506121459 | 75 | 182 | 0.9 | 2.6 | 0.00 | 0.00 | 0.00 | 17 | 1007.4 |
| 20260506120959 | 75 | 178 | 0.0 | 2.6 | 0.00 | 0.00 | 0.00 | 17 | 1007.4 |
| 20260506120500 | 75 | 191 | 0.0 | 4.3 | 0.00 | 0.00 | 0.00 | 17 | 1007.5 |
| 20260506115958 | 75 | 174 | 0.0 | 4.3 | 0.00 | 0.00 | 0.00 | 17 | 1007.5 |
| 20260506115501 | 75 | 168 | 0.9 | 4.3 | 0.00 | 0.00 | 0.00 | 17 | 1007.3 |
| 20260506114500 | 75 | 173 | 0.9 | 2.6 | 0.00 | 0.00 | 0.00 | 17 | 1007.3 |
| 20260506113959 | 75 | 159 | 0.0 | 0.0 | 0.00 | 0.00 | 0.00 | 17 | 1007.4 |
| 20260506113000 | 76 | 181 | 0.0 | 0.0 | 0.00 | 0.00 | 0.00 | 17 | 1007.3 |
| 20260506112459 | 76 | 184 | 0.0 | 0.0 | 0.00 | 0.00 | 0.00 | 17 | 1007.3 |
| 20260506112000 | 76 | 184 | 0.0 | 0.0 | 0.00 | 0.00 | 0.00 | 17 | 1007.4 |
| 20260506111459 | 76 | 184 | 0.0 | 0.0 | 0.00 | 0.00 | 0.00 | 17 | 1007.4 |
| 20260506110459 | 76 | 184 | 0.0 | 0.0 | 0.00 | 0.00 | 0.00 | 17 | 1007.2 |
| 20260506105958 | 76 | 184 | 0.0 | 0.0 | 0.00 | 0.00 | 0.00 | 17 | 1007.2 |
| 20260506105459 | 76 | 184 | 0.0 | 0.0 | 0.00 | 0.00 | 0.00 | 17 | 1007.2 |
| 20260506105002 | 76 | 184 | 0.0 | 0.0 | 0.00 | 0.00 | 0.00 | 17 | 1007.1 |
| 20260506104459 | 76 | 184 | 0.0 | 0.0 | 0.00 | 0.00 | 0.00 | 17 | 1007.2 |
| 20260506103959 | 76 | 184 | 0.0 | 0.0 | 0.00 | 0.00 | 0.00 | 17 | 1007.2 |
| 20260506102959 | 76 | 184 | 0.0 | 0.0 | 0.00 | 0.00 | 0.00 | 17 | 1007.1 |
| 20260506102459 | 76 | 184 | 0.0 | 0.0 | 0.00 | 0.00 | 0.00 | 17 | 1007.1 |
| 20260506102001 | 76 | 184 | 0.0 | 0.0 | 0.00 | 0.00 | 0.00 | 17 | 1007.0 |
| 20260506101459 | 76 | 182 | 0.0 | 0.0 | 0.00 | 0.00 | 0.00 | 17 | 1007.1 |
| 20260506101000 | 76 | 182 | 0.0 | 0.0 | 0.00 | 0.00 | 0.00 | 17 | 1007.1 |
| 20260506100459 | 76 | 192 | 0.0 | 0.0 | 0.00 | 0.00 | 0.00 | 17 | 1007.0 |
| 20260506095959 | 76 | 205 | 0.0 | 0.0 | 0.00 | 0.00 | 0.00 | 17 | 1006.9 |
| 20260506095459 | 76 | 204 | 0.0 | 2.6 | 0.00 | 0.00 | 0.00 | 17 | 1006.9 |
| 20260506094959 | 76 | 219 | 0.9 | 2.6 | 0.00 | 0.00 | 0.00 | 17 | 1006.9 |
| 20260506094501 | 76 | 204 | 0.9 | 2.6 | 0.00 | 0.00 | 0.00 | 17 | 1006.9 |
| 20260506093959 | 76 | 176 | 0.0 | 5.2 | 0.00 | 0.00 | 0.00 | 17 | 1006.8 |
| 20260506093500 | 76 | 188 | 0.9 | 5.2 | 0.00 | 0.00 | 0.00 | 17 | 1006.8 |
| 20260506093000 | 76 | 196 | 0.9 | 5.2 | 0.00 | 0.00 | 0.00 | 17 | 1006.9 |
| 20260506092459 | 76 | 189 | 0.9 | 4.3 | 0.00 | 0.00 | 0.00 | 17 | 1006.9 |
| 20260506091959 | 76 | 189 | 1.7 | 4.3 | 0.00 | 0.00 | 0.00 | 17 | 1006.9 |
| 20260506091503 | 76 | 189 | 1.7 | 4.3 | 0.00 | 0.00 | 0.00 | 17 | 1006.9 |
| 20260506091001 | 76 | 187 | 1.7 | 4.3 | 0.00 | 0.00 | 0.00 | 17 | 1006.9 |
| 20260506090459 | 76 | 201 | 1.7 | 4.3 | 0.00 | 0.00 | 0.00 | 17 | 1007.0 |
| 20260506085459 | 76 | 178 | 0.9 | 4.3 | 0.00 | 0.00 | 0.00 | 17 | 1007.0 |
| 20260506084959 | 76 | 213 | 1.7 | 4.3 | 0.00 | 0.00 | 0.00 | 17 | 1007.1 |
| 20260506084000 | 76 | 212 | 1.7 | 5.2 | 0.00 | 0.00 | 0.00 | 17 | 1007.0 |
| 20260506083459 | 76 | 192 | 0.9 | 5.2 | 0.00 | 0.00 | 0.00 | 17 | 1007.0 |
| 20260506083000 | 76 | 221 | 1.7 | 5.2 | 0.00 | 0.00 | 0.00 | 17 | 1007.0 |
| 20260506082501 | 76 | 165 | 1.7 | 7.8 | 0.00 | 0.00 | 0.00 | 17 | 1006.9 |
| 20260506082000 | 77 | 215 | 2.6 | 8.7 | 0.00 | 0.00 | 0.00 | 17 | 1006.9 |
| 20260506081502 | 76 | 209 | 1.7 | 8.7 | 0.00 | 0.00 | 0.00 | 17 | 1007.0 |
| 20260506080459 | 77 | 207 | 1.7 | 6.1 | 0.00 | 0.00 | 0.00 | 17 | 1007.1 |
| 20260506072959 | 77 | 174 | 0.9 | 6.1 | 0.00 | 0.00 | 0.00 | 17 | 1007.5 |
| 20260506072459 | 77 | 172 | 2.6 | 6.1 | 0.00 | 0.00 | 0.00 | 17 | 1007.4 |
| 20260506072000 | 77 | 215 | 1.7 | 6.1 | 0.00 | 0.00 | 0.00 | 17 | 1007.4 |
| 20260506071459 | 77 | 179 | 1.7 | 5.2 | 0.00 | 0.00 | 0.00 | 17 | 1007.4 |
| 20260506071000 | 77 | 196 | 2.6 | 6.1 | 0.00 | 0.00 | 0.00 | 17 | 1007.5 |
| 20260506062501 | 77 | 194 | 5.2 | 10.4 | 0.00 | 0.00 | 0.00 | 17 | 1007.5 |
| 20260506062000 | 77 | 180 | 5.2 | 10.4 | 0.00 | 0.00 | 0.00 | 17 | 1007.5 |
| 20260506061459 | 77 | 169 | 4.3 | 8.7 | 0.00 | 0.00 | 0.00 | 17 | 1007.6 |
| 20260506061000 | 77 | 173 | 3.5 | 8.7 | 0.00 | 0.00 | 0.00 | 17 | 1007.6 |
| 20260506051000 | 77 | 173 | 3.5 | 10.4 | 0.00 | 0.00 | 0.00 | 17 | 1007.4 |
| 20260506044959 | 77 | 177 | 2.6 | 8.7 | 0.00 | 0.00 | 0.00 | 17 | 1007.5 |
| 20260506044500 | 77 | 158 | 2.6 | 6.1 | 0.00 | 0.00 | 0.00 | 17 | 1007.6 |
| 20260506044000 | 77 | 147 | 1.7 | 7.0 | 0.00 | 0.00 | 0.00 | 17 | 1007.5 |
| 20260506043459 | 77 | 204 | 1.7 | 7.0 | 0.00 | 0.00 | 0.00 | 17 | 1007.5 |
| 20260506042501 | 77 | 177 | 4.3 | 8.7 | 0.00 | 0.00 | 0.00 | 17 | 1007.5 |
| 20260506041959 | 77 | 169 | 4.3 | 8.7 | 0.00 | 0.00 | 0.00 | 17 | 1007.5 |
| 20260506041000 | 77 | 172 | 3.5 | 7.8 | 0.00 | 0.00 | 0.00 | 17 | 1007.3 |
| 20260506040502 | 77 | 169 | 2.6 | 7.8 | 0.00 | 0.00 | 0.00 | 17 | 1007.2 |
| 20260506035500 | 78 | 174 | 2.6 | 7.0 | 0.00 | 0.00 | 0.00 | 17 | 1007.2 |
| 20260506035001 | 78 | 171 | 0.9 | 6.1 | 0.00 | 0.00 | 0.00 | 17 | 1007.1 |
| 20260506034500 | 78 | 175 | 1.7 | 6.1 | 0.00 | 0.00 | 0.00 | 17 | 1006.9 |
| 20260506033959 | 78 | 164 | 2.6 | 7.8 | 0.00 | 0.00 | 0.00 | 17 | 1006.7 |
| 20260506033500 | 78 | 176 | 3.5 | 7.8 | 0.00 | 0.01 | 0.00 | 17 | 1006.7 |
| 20260506033000 | 78 | 164 | 2.6 | 7.8 | 0.00 | 0.01 | 0.00 | 17 | 1006.6 |
| 20260506032459 | 78 | 170 | 4.3 | 10.4 | 0.00 | 0.01 | 0.00 | 17 | 1006.7 |
| 20260506032000 | 79 | 159 | 2.6 | 10.4 | 0.00 | 0.01 | 0.00 | 17 | 1006.7 |
| 20260506031500 | 79 | 188 | 2.6 | 10.4 | 0.00 | 0.01 | 0.00 | 17 | 1006.6 |
| 20260506030959 | 79 | 182 | 2.6 | 10.4 | 0.00 | 0.01 | 0.00 | 17 | 1006.5 |
| 20260506030500 | 79 | 167 | 5.2 | 10.4 | 0.00 | 0.01 | 0.00 | 17 | 1006.4 |
| 20260506025959 | 79 | 185 | 4.3 | 10.4 | 0.00 | 0.01 | 0.00 | 17 | 1006.2 |
| 20260506025500 | 80 | 165 | 2.6 | 10.4 | 0.00 | 0.01 | 0.00 | 17 | 1006.2 |
| 20260506025000 | 80 | 191 | 4.3 | 10.4 | 0.00 | 0.01 | 0.00 | 17 | 1006.1 |
| 20260506024459 | 80 | 169 | 4.3 | 10.4 | 0.00 | 0.01 | 0.00 | 17 | 1006.1 |
| 20260506024002 | 80 | 173 | 4.3 | 10.4 | 0.00 | 0.01 | 0.00 | 17 | 1006.1 |
| 20260506023500 | 80 | 166 | 4.3 | 10.4 | 0.00 | 0.01 | 0.00 | 17 | 1006.1 |
| 20260506022959 | 80 | 176 | 3.5 | 7.8 | 0.00 | 0.01 | 0.00 | 17 | 1006.0 |
| 20260506022500 | 81 | 165 | 3.5 | 12.2 | 0.00 | 0.01 | 0.00 | 17 | 1006.0 |
| 20260506022003 | 81 | 169 | 4.3 | 12.2 | 0.00 | 0.01 | 0.00 | 17 | 1005.9 |
| 20260506021459 | 81 | 160 | 3.5 | 8.7 | 0.00 | 0.01 | 0.00 | 17 | 1005.9 |
| 20260506021000 | 81 | 165 | 4.3 | 8.7 | 0.00 | 0.01 | 0.00 | 17 | 1005.7 |
| 20260506015959 | 82 | 184 | 4.3 | 11.3 | 0.00 | 0.01 | 0.00 | 17 | 1005.5 |
| 20260506015000 | 82 | 161 | 4.3 | 14.8 | 0.00 | 0.01 | 0.00 | 17 | 1005.4 |
| 20260506014459 | 82 | 150 | 4.3 | 10.4 | 0.00 | 0.01 | 0.00 | 17 | 1005.4 |
| 20260506014000 | 83 | 161 | 4.3 | 10.4 | 0.00 | 0.01 | 0.00 | 18 | 1005.4 |
| 20260506013500 | 83 | 170 | 2.6 | 7.0 | 0.00 | 0.01 | 0.00 | 24 | 1005.2 |
| 20260506013002 | 83 | 165 | 2.6 | 8.7 | 0.00 | 0.01 | 0.00 | 29 | 1005.1 |
| 20260506012459 | 83 | 160 | 2.6 | 8.7 | 0.00 | 0.01 | 0.00 | 35 | 1005.1 |
| 20260506012000 | 83 | 138 | 2.6 | 7.8 | 0.00 | 0.01 | 0.00 | 41 | 1005.1 |
| 20260506011500 | 84 | 167 | 1.7 | 5.2 | 0.00 | 0.01 | 0.00 | 44 | 1005.0 |
| 20260506011000 | 84 | 166 | 0.9 | 6.1 | 0.00 | 0.01 | 0.00 | 45 | 1004.9 |
| 20260506010501 | 84 | 179 | 0.9 | 6.1 | 0.00 | 0.01 | 0.00 | 45 | 1004.8 |
| 20260506010000 | 84 | 165 | 0.9 | 6.1 | 0.00 | 0.01 | 0.00 | 45 | 1004.7 |